Regional Weather Roundup
Issued by NWS

Home | Current Version | Previous Version | Graphics & Text | Print | Product List | Glossary On
Versions: 1 2 3 4 5 6 7 8 9 10 11 12 13 14 15 16 17 18 19 20 21 22 23 24 25 26 27 28 29 30 31 32 33 34 35 36 37 38 39 40 41 42 43 44 45 46 47 48
000
ASUS43 KDMX 230207
RWRIA

WEATHER ROUNDUP FOR IOWA
NATIONAL WEATHER SERVICE DES MOINES IA
800 PM CST SAT NOV 22 2014

NOTE: "FAIR" INDICATES FEW OR NO CLOUDS BELOW 12,000 FEET WITH NO
SIGNIFICANT WEATHER AND/OR OBSTRUCTIONS TO VISIBILITY.

* - THESE STATIONS ARE NOT NWS STATIONS...THUS NOT UNDER NWS
QUALITY CONTROL.  THEY ALSO DO NOT REPORT WEATHER SUCH
AS PRECIPITATION OR FOG.

IAZ001>003-012>014-020>022-031>034-043>046-230300-
   NORTHWEST IOWA

CITY           SKY/WX    TMP DP  RH WIND       PRES   REMARKS
CARROLL *      CLOUDY    54  52  94 S18       29.59F
CHEROKEE *     CLOUDY    45  45 100 S15       29.55S
DENISON *      CLOUDY    54  54 100 S14G20    29.58S
LE MARS *        N/A     43  41  93 S10       29.53S
ORANGE CITY *  CLEAR     39  36  87 S10       29.51F FOG     WCI  32
SHELDON *      CLEAR     36  36 100 S13       29.50F FOG     WCI  27
SIOUX CITY     PTCLDY    36  34  92 SE8       29.55R WCI  30
SPENCER        PTCLDY    40  38  93 S12       29.54F FOG     WCI  33
STORM LAKE *   CLOUDY    48  48 100 S20       29.56F
$$

IAZ055>058-069>071-079>083-090>094-230300-
   SOUTHWEST IOWA

CITY           SKY/WX    TMP DP  RH WIND       PRES   REMARKS
ATLANTIC *     CLOUDY    55  55 100 S17G24    29.62S
AUDUBON *      CLOUDY    54  48  82 S16G24    29.63S HAZE
CLARINDA *     CLOUDY    55  54  94 S17       29.67F
COUNCIL BLFS * CLOUDY    55  55 100 S13       29.59S FOG
CRESTON *      MOCLDY    54  54 100 S16       29.67F
HARLAN  *      CLOUDY    54  54 100 S15G24    29.64S
LAMONI         PTCLDY    52  50  93 S13       29.71S
RED OAK *      CLOUDY    55  54  94 S21G31    29.63F
SHENANDOAH *   CLOUDY    55  54  94 S20G29    29.65S
$$

IAZ047>049-059>061-072>074-084-230300-
   CENTRAL IOWA

CITY           SKY/WX    TMP DP  RH WIND       PRES   REMARKS
AMES           CLOUDY    53  50  89 S12       29.65F
ANKENY *       CLOUDY    57  54  88 S14G22    29.67S
CHARITON *     CLOUDY    54  52  94 S17       29.71S
DES MOINES     CLOUDY    57  52  83 S16       29.67S
GRINNELL*      CLOUDY    54  50  87 S15G24    29.70F
KNOXVILLE *    CLOUDY    55  50  82 S15       29.68F
MARSHALLTOWN   CLOUDY    54  52  93 S16       29.68S
PELLA *        CLOUDY    55  52  88 S12G17    29.71F
PERRY *        CLOUDY    55  52  88 S16       29.64S
$$

IAZ004>006-015-016-023>025-035-036-230300-
   NORTH CENTRAL IOWA

CITY           SKY/WX    TMP DP  RH WIND       PRES   REMARKS
ALGONA *       CLOUDY    45  45 100 S20       29.58F
CLARION *      CLOUDY    48  48 100 S15       29.62S FOG
ESTHERVILLE    MOCLDY    38  37  97 S16       29.54F FOG     WCI  29
FORT DODGE *   CLOUDY    52  48  87 S17G23    29.62S
MASON CITY     CLOUDY    41  40  96 S9        29.63F FOG
FOREST CITY *  CLOUDY    41  41 100 S8        29.60F FOG
IOWA FALLS *   FOG       50  48  93 S15       29.66S VSB 3/4
$$

IAZ007>011-017>019-026>030-037>042-050>054-066-230300-
   NORTHEAST IOWA

CITY           SKY/WX    TMP DP  RH WIND       PRES   REMARKS
CEDAR RAPIDS   CLOUDY    52  51  97 S10       29.73F
CHARLES CITY * CLOUDY    46  46 100 S12       29.66F FOG
CLINTON *      CLOUDY    52  48  87 S12       29.81F
DECORAH *      CLOUDY    46  46 100 S7G13     29.67F FOG
DUBUQUE        CLOUDY    50  49  96 S17       29.73F FOG
MONTICELLO *   CLOUDY    52  52 100 S15G21    29.73F
OELWEIN *      FOG       48  48 100 S15       29.70F VSB 1/4
WATERLOO       CLOUDY    50  50 100 S10       29.69F FOG
$$

IAZ064-065-067-068-078-230300-
   EAST CENTRAL IOWA

CITY           SKY/WX    TMP DP  RH WIND       PRES   REMARKS
DAVENPORT      MOCLDY    53  47  79 S18G26    29.78F
IOWA CITY      CLOUDY    53  50  89 S12       29.77S
MT. PLEASANT * CLEAR     52  48  87 S15       29.78F
MUSCATINE *    CLOUDY    55  50  82 S13       29.78S
QUAD CITIES    CLOUDY    55  48  77 S12       29.78F
$$

IAZ062-063-075>077-085>089-095>099-230300-
   SOUTHEAST IOWA

CITY           SKY/WX    TMP DP  RH WIND       PRES   REMARKS
BURLINGTON     CLEAR     53  48  83 S14       29.80S
FAIRFIELD *    PTCLDY    54  48  82 S15       29.75F
FORT MADISON * CLEAR     54  48  82 S12       29.81S
KEOKUK *       CLEAR     55  50  82 S13       29.80S
OSKALOOSA *    CLOUDY    52  50  93 S10       29.73F
CENTERVILLE *  PTCLDY    54  52  94 S13       29.75F
OTTUMWA        CLOUDY    54  50  86 S10       29.74S
WASHINGTON *   CLOUDY    54  54 100 S15       29.76S
$$

ABBREVIATIONS USED IN REMARKS
   TC - TEMPERATURES IN CELSIUS
  WCI - WIND CHILL INDEX
   HX - HEAT INDEX
  VSB - VISIBILITY
$$




USA.gov is the U.S. government's official web portal to all federal, state and local government web resources and services.